#timestamp,LO_Frequency,Hit,StdDev 
1620014415.1,286047002.3,N
1620014416.0,286047002.3,N
1620014435.8,286047002.4,N
1620014455.6,286047001.6,N
1620014475.5,286047000.1,N
1620014495.3,286047000.2,N
1620014515.2,286047001.4,N
1620014535.9,286047001.4,N
1620014555.7,286047001.7,N
1620014575.6,286047003.8,N
1620014595.4,286047001.4,N
1620014615.2,286047006.0,Y
1620014635.1,286047001.3,P
1620014636.0,286047001.3,P
1620014655.8,286047003.9,P
1620014675.7,286047001.6,N
1620014695.5,286047001.3,N
1620014715.3,286046999.8,N
1620014735.2,286047000.4,N
1620014755.0,286047004.4,Y
1620014755.9,286047004.4,P
1620014775.8,286047001.5,N
1620014795.6,286047004.0,N
1620014815.4,286047001.7,N
1620014835.3,286047004.4,Y
1620014855.1,286047000.6,P
1620014875.8,286047000.8,N
1620014895.7,286046998.8,N
1620014915.5,286046998.2,N
1620014935.4,286046998.3,N
1620014955.2,286046999.4,N
1620014975.0,286046996.8,N
1620014975.9,286046996.8,N
1620014995.8,286046996.9,N
1620015015.6,286046996.7,N
1620015035.4,286047004.4,N
1620015055.3,286047003.2,N
1620015075.1,286047001.8,N
1620015095.9,286047000.4,N
1620015115.7,286047002.6,N
1620015135.5,286047004.0,N
1620015155.4,286047004.4,N
1620015175.2,286047001.8,N
1620015195.0,286047001.9,N
1620015195.9,286047001.9,N
1620015215.8,286046999.9,N
1620015235.6,286047002.8,N
1620015255.5,286047000.7,N
1620015275.3,286047001.0,N
1620015295.1,286046998.5,N
1620015315.9,286047000.5,N
1620015335.7,286047000.0,N
1620015355.6,286047000.8,N
1620015375.4,286046998.6,N
1620015395.2,286046999.9,N
1620015415.1,286046998.6,N
1620015416.0,286046998.6,N
1620015435.8,286047001.1,N
1620015455.6,286047001.7,N
1620015475.5,286047003.5,N
1620015495.3,286047001.7,N
1620015515.2,286047002.1,N
1620015535.9,286047000.1,N
1620015555.7,286047002.7,N
1620015575.6,286047002.5,N
1620015595.4,286047000.2,N
1620015615.2,286047000.1,N
1620015635.1,286046999.7,N
1620015636.0,286046999.7,N
1620015655.8,286046998.8,N
1620015675.7,286046998.5,N
1620015695.5,286047000.3,N
1620015715.3,286047002.2,N
1620015735.2,286047001.3,N
1620015755.0,286047004.3,Y
1620015755.9,286047004.3,P
1620015775.8,286047004.0,N
1620015795.6,286047000.0,N
1620015815.4,286046998.5,N
1620015835.3,286047000.5,N
1620015855.1,286047001.0,N
1620015875.9,286047000.6,N
1620015895.7,286046998.8,N
1620015915.5,286047000.2,N
1620015935.4,286047000.6,N
1620015955.2,286047000.7,N
1620015975.0,286047000.1,N
1620015975.9,286047000.1,N
1620015995.8,286047002.4,N
1620016015.6,286047002.1,N
1620016035.5,286047002.1,N
1620016055.3,286047002.1,N
1620016075.1,286047000.4,N
1620016095.9,286047001.1,N
1620016115.7,286047001.1,N
1620016135.5,286046998.7,N
1620016155.4,286046998.7,N
1620016175.2,286046996.9,N
1620016195.1,286046997.4,N
1620016196.0,286046997.4,N
1620016215.8,286046997.5,N
1620016235.6,286046997.9,N
1620016255.5,286046995.1,N
1620016275.3,286046993.8,Y
1620016295.1,286046993.9,P
1620016315.9,286046992.1,N
1620016335.7,286046991.9,N
1620016355.6,286046994.2,N
1620016375.4,286046997.5,N
1620016395.2,286046999.1,N
1620016415.1,286046996.8,N
1620016416.0,286046996.8,N
1620016435.8,286046999.1,N
1620016455.6,286046997.3,N
1620016475.5,286046995.9,N
1620016495.3,286046996.1,N
1620016515.2,286046998.0,N
1620016535.9,286046994.9,N
1620016555.7,286046995.5,N
1620016575.6,286046998.0,N
1620016595.4,286046995.8,N
1620016615.2,286046993.9,N
1620016635.1,286046993.7,N
1620016636.0,286046993.7,N
1620016655.8,286046994.1,N
1620016675.7,286046993.6,N
1620016695.5,286046995.0,N
1620016715.3,286046997.1,N
1620016735.2,286046997.4,N
1620016755.0,286046996.2,N
1620016755.9,286046996.2,N
1620016775.8,286046994.6,N
1620016795.6,286046992.0,Y
1620016815.4,286046997.6,P
1620016835.3,286046997.7,N
1620016855.1,286046999.6,N
1620016875.8,286046998.3,N
1620016895.7,286046998.4,N
1620016915.5,286046999.8,N
1620016935.4,286046998.5,N
1620016955.2,286046998.5,N
1620016975.0,286047001.2,N
1620016975.9,286047001.2,N
1620016995.8,286046998.9,N
1620017015.6,286046998.3,N
1620017035.4,286046998.3,N
1620017055.3,286046998.5,N
1620017075.1,286047000.7,N
1620017095.9,286046998.5,N
1620017115.7,286046997.8,N
1620017135.5,286046997.6,N
1620017155.4,286046994.9,Y
1620017175.2,286046999.4,P
1620017195.1,286046996.5,P
1620017196.0,286046996.5,N
1620017215.8,286046997.3,N
1620017235.6,286046997.2,N
1620017255.5,286046996.7,Y
1620017275.3,286047001.6,P
1620017295.1,286047001.5,N
1620017315.9,286047002.3,N
1620017335.7,286047002.0,N
1620017355.6,286047002.2,N
1620017375.4,286047002.2,N
1620017395.2,286047004.0,N
1620017415.1,286047003.5,N
1620017416.0,286047003.5,N
1620017435.8,286047004.1,N
1620017455.7,286047003.8,N
1620017475.5,286047003.7,N
1620017495.3,286047002.0,N
1620017515.2,286047001.7,N
1620017535.0,286047001.3,N
1620017535.9,286047001.3,N
1620017555.7,286047003.5,N
1620017575.6,286047003.5,N
1620017595.4,286047003.9,N
1620017615.3,286047001.8,N
1620017635.1,286047001.9,N
1620017636.0,286047001.9,N
1620017655.8,286047001.8,N
1620017675.7,286047001.5,N
1620017695.5,286047002.0,N
1620017715.3,286047002.2,N
1620017735.2,286047001.9,N
1620017755.0,286047002.5,N
1620017755.9,286047002.5,N
1620017775.8,286047002.8,N
1620017795.6,286047000.0,N
1620017815.4,286047002.8,N
1620017835.3,286047000.2,N
1620017855.1,286046999.7,N
1620017875.9,286047000.2,N
1620017895.7,286047000.1,N
1620017915.5,286047000.1,N
1620017935.4,286047000.0,N
1620017955.2,286047000.9,N
1620017975.0,286047000.9,N
1620017975.9,286047000.9,N
1620017995.8,286046999.7,N
